Location: Unspecified
(48.7670°N, 0.0000°E)
Time: 09:37:31
(UTC+00:00)

Vanguard 2 Rocket - Pass Details

Date: 19 June 2019
Orbit: 554 x 3326 km, 32.9° (Epoch: 19 July)

Event Time Altitude Azimuth Distance (km) Brightness Sun altitude
Rises 21:14:34 0° 206° (SSW) 4,184 10.0 -8.8°
Reaches altitude 10° 21:17:46 10° 191° (S) 3,589 9.6 -9.1°
Maximum altitude 21:24:52 23° 143° (SE) 3,435 9.2 -9.8°
Drops below altitude 10° 21:34:59 10° 100° (E) 5,318 10.4 -10.7°
Sets 21:41:12 0° 89° (E) 6,770 11.0 -11.3°
